Location: Eyeline Observatory
(43.2182°N, 78.8632°W)
Time: 19:52:52
(UTC-05:00)

Envisat - Pass Details

Date: 13 October 2017
Orbit: 764 x 766 km, 98.2° (Epoch: 14 December)

Event Time Altitude Azimuth Distance (km) Brightness Sun altitude
Exits shadow 20:57:05 74° 22° (NNE) 800 2.9 -26.5°
Drops below altitude 10° 21:01:48 10° 349° (N) 2,314 5.8 -27.3°
Sets 21:04:06 0° 348° (NNW) 3,245 6.6 -27.7°
